Regional Weather Roundup
Issued by NWS

Home | Current Version | Previous Version | Text Only | Print | Product List | Glossary Off
Versions: 1 2 3 4 5 6 7 8 9 10 11 12 13 14 15 16 17 18 19 20 21 22 23 24 25 26 27 28 29 30 31 32 33 34 35 36 37 38 39 40 41 42 43 44 45 46 47 48 49 50

000
ASUS43 KLSX 192210
RWRMO

WEATHER SUMMARY FOR MISSOURI
NATIONAL WEATHER SERVICE SPRINGFIELD MO
400 PM CST SUN FEB 19 2017

NOTE: "FAIR" INDICATES FEW OR NO CLOUDS BELOW 12,000 FEET WITH NO
       SIGNIFICANT WEATHER AND/OR OBSTRUCTIONS TO VISIBILITY.
       CURRENT SKY AND/OR WEATHER CONDITIONS ARE NOT AVAILABLE FOR
       CHILLICOTHE AND FARMINGTON.

MOZ001>031-035>038-043-044-053-054-192300-
...NORTHERN AND WESTERN MISSOURI...

CITY           SKY/WX    TMP DP  RH WIND       PRES   REMARKS
KANSAS CTY INT PTSUNNY   74  54  49 S16       29.88F
KANSAS C DTWN  SUNNY     75  54  47 S14       29.87F
LEE`S SUMMIT   SUNNY     74  55  51 S15G22    29.90S
ST JOSEPH      SUNNY     73  54  51 S15       29.86F
CHILLICOTHE      N/A     74  50  42 SE12G20   29.90F
KIRKSVILLE     PTSUNNY   71  48  43 SE13      29.94F

$$
MOZ066>068-077>081-088>096-101>105-192300-
...SOUTHWEST MISSOURI...

CITY           SKY/WX    TMP DP  RH WIND       PRES   REMARKS
SPRINGFIELD    MOSUNNY   75  56  51 SE14      29.94F
JOPLIN         SUNNY     77  52  41 S14       29.90F
BRANSON        MOSUNNY   75  50  41 SE9       29.97S

$$
MOZ032>034-039>042-045>050-055>058-069>072-192300-
...CENTRAL MISSOURI...

CITY           SKY/WX    TMP DP  RH WIND       PRES   REMARKS
COLUMBIA       SUNNY     76  48  37 S14       29.95F
JEFFERSON CITY SUNNY     77  45  32 SE9       29.93F
ROLLA          SUNNY     75  46  35 S9        29.97F
SEDALIA        SUNNY     78  47  33 S12       29.93F
WHITEMAN AFB   SUNNY     77  51  40 S13       29.90F
WARRENSBURG    SUNNY     75  50  41 S10G17    29.90S
OSAGE BEACH    SUNNY     76  51  41 S9        29.95F

$$
MOZ051-052-059>065-192300-
...EAST CENTRAL MISSOURI...

CITY           SKY/WX    TMP DP  RH WIND       PRES   REMARKS
ST LOUIS INTL  PTSUNNY   71  50  47 SE13      30.02F
SPIRIT OF STL  SUNNY     73  52  47 SE10      29.99F
ST CHARLES     SUNNY     70  51  51 SE13      30.01F

$$
MOZ072>076-082>087-097>100-106>115-192300-
...SOUTH CENTRAL AND SOUTHEAST MISSOURI...

CITY           SKY/WX    TMP DP  RH WIND       PRES   REMARKS
CAPE GIRARDEAU SUNNY     59  54  83 SE8       30.07F
FARMINGTON     SUNNY     71  47  42 S12       30.04S
POPLAR BLUFF   SUNNY     68  59  73 E6        30.05S
WEST PLAINS    MOSUNNY   65  56  72 SE10      30.03S

$$



USA.gov is the U.S. government's official web portal to all federal, state and local government web resources and services.